This is the latest recevied weather packets stored in our database for station/object OE-11213. If no packets are shown the sender has not sent any weather packets the latest 10 day(s).
| Time | Temp. | Humidity | Pressure | Rain* | Wind** | Luminosity | Snow |
|---|---|---|---|---|---|---|---|
| 1788034303 | 19.44° C | 82% | 1016.4 hPa | 0 mm | - | 0 W/m² | - |
| 1788033930 | 19.44° C | 79% | 1016.3 hPa | 0 mm | - | 0 W/m² | - |
| 1788033330 | 19.44° C | 80% | 1016.3 hPa | 0 mm | - | 0 W/m² | - |
| 1788032503 | 19.44° C | 79% | 1016.1 hPa | 0 mm | - | 0 W/m² | - |
| 1788032130 | 20° C | 78% | 1016 hPa | 0 mm | - | 0 W/m² | - |
| 1788031530 | 20.56° C | 75% | 1015.9 hPa | 0 mm | - | 0 W/m² | - |
| 1788030703 | 20.56° C | 75% | 1015.7 hPa | 0 mm | - | 0 W/m² | - |
| 1788030330 | 20.56° C | 73% | 1015.6 hPa | 0 mm | - | 0 W/m² | - |
| 1788029730 | 20.56° C | 75% | 1015.7 hPa | 0 mm | - | 0 W/m² | - |
| 1788028904 | 20.56° C | 74% | 1015.4 hPa | 0 mm | - | 0 W/m² | - |
| 1788028530 | 21.11° C | 71% | 1015.2 hPa | 0 mm | - | 0 W/m² | - |
| 1788027930 | 21.11° C | 70% | 1015.1 hPa | 0 mm | - | 0 W/m² | - |
| 1788027103 | 21.67° C | 70% | 1014.9 hPa | 0 mm | - | 0 W/m² | - |
| 1788026730 | 21.67° C | 69% | 1014.8 hPa | 0 mm | - | 7 W/m² | - |
| 1788026130 | 22.22° C | 66% | 1014.5 hPa | 0 mm | - | 7 W/m² | - |
| 1788025303 | 22.78° C | 63% | 1014.4 hPa | 0 mm | - | 15 W/m² | - |
| 1788024930 | 23.33° C | 60% | 1014.2 hPa | 0 mm | - | 22 W/m² | - |
| 1788024330 | 23.33° C | 59% | 1014.2 hPa | 0 mm | - | 29 W/m² | - |
| 1788023503 | 23.33° C | 59% | 1014.2 hPa | 0 mm | - | 80 W/m² | - |
| 1788023129 | 23.33° C | 59% | 1014.2 hPa | 0 mm | - | 116 W/m² | - |
| 1788022530 | 23.33° C | 58% | 1014.2 hPa | 0 mm | - | 145 W/m² | - |
| 1788021703 | 23.33° C | 57% | 1014 hPa | 0 mm | - | 138 W/m² | - |
| 1788021330 | 23.89° C | 56% | 1014 hPa | 0 mm | - | 189 W/m² | - |
| 1788020729 | 23.33° C | 56% | 1014.2 hPa | 0 mm | - | 116 W/m² | - |
| 1788019903 | 23.33° C | 55% | 1014.2 hPa | 0 mm | - | 73 W/m² | - |
* Rain latest hour (hover to see other rain measurements)
** Current wind speed in m/s (hover to see current wind gust speed)